CZ-4 DEB, 27677

Orbit data source: Space-Track

CZ-4 DEB, 27677 is space debris in SSO originally from a launch on Thu, 14 Oct 1999 UTC launched from the Taiyaun Space Center, China (TSC). Debris objects in space refer to the collection of defunct objects orbiting the Earth. Examples of debris include non-operational satellites, rocket bodies, and fragments generated from explosions, collisions, or faulty payload assembly.

Loading next visibility...
Identifier
27677, 1999-057MR
Orbit
SSO
Country
Flag of CNCN / PRC
Related business
Manufacturer
Unknown
Mission
Spacecraft
Bus & Motor
Unknown
Mass
Unknown
Launch date (UTC)
1999-10-14 (26 years ago)
Launch vehicle
Unknown
Launch site
Taiyaun Space Center, China (TSC)
Object type
Payload
Rocket body
Debris
Shape & HBR
Unknown shape, 0.1 m
Radar Cross Section
Small (<0.1 m²)

Expand to show TLE details & history
Last TLE update: 7 hours ago

TLE from 7 hours ago
0 CZ-4 DEB
1 27677U 99057MR  25291.97336030  .00000826  00000-0  22997-3 0  9997
2 27677  98.6158 339.3423 0075498  96.1687  23.5536 14.47420075234990
Epoch: 2025-10-18T23:21Z
TLE epoch observation values (Epoch: 2025-10-18T23:21:38.329Z)
Latitude
58.93029°
Longitude
155.72048°
Altitude
694.874 km
Speed
7.54 km/s
True Right ascension
11h 35m 18s
True Declination
58° 46' 36"
Sunlit
Object was in daylight at epoch
Visualization orbit readout
Latitude
Unknown
Longitude
Unknown
Altitude
Unknown
Speed
Unknown
Apparent Right ascension
Unknown
Apparent Declination
Unknown
Sunlit
N/A
Visualization observer readout
Local Sidereal Time
01:18:18
Azimuth
Unknown
Elevation
Unknown
Doppler factor
Unknown
Orbital elements
Apogee altitude
784.879 km
Perigee altitude
677.53 km
Semi-major axis
7,109.342 km
Eccentricity
0.00755
Inclination
98.6158°
RAAN
339.3423°
Arg. of periapsis
96.1687°
True anomaly
23.90233°
Mean anomaly
23.5536°
Eccentric anomaly
23.72766°
Mean motion
3.62075 °/min
Orbital period
99.43 mins
BSTAR
0.00022997
Loading maneuver chart data...
Computing Atmospheric mass density...

Documentation

Showing up to 5 results
|